Home > Weather > Pau > Past weeks

Flag for France Past Weather in Pau, Aquitaine, France — Yesterday and Last 2 Weeks

Now
63 °F

Passing clouds.


Feels Like: 63 °F
Forecast: 56 / 83 °F
Wind: No wind

Location: Pau Airport

Current Time: Aug 30, 2016 at 3:28:51 AM

Latest Report: Aug 30, 2016 at 2:30 AM


Visibility: N/A

Pressure: 30.24 "Hg

Humidity: 88%

Dew Point: 59 °F

Location of PauLocation

Past Weather in Pau — Graph

°F

Pau Temperature Yesterday

Maximum temperature yesterday: 68 °F (at 12:30 PM)
Minimum temperature yesterday: 63 °F (at 7:30 AM)
Average temperature yesterday: 66 °F

High & Low Weather Summary for the Past Weeks

 TemperatureHumidityPressure
High97 °F (Aug 27, 3:30 PM)100% (Aug 18, 8:30 AM)30.33 "Hg (Aug 18, 8:30 AM)
Low55 °F (Aug 19, 6:00 AM)25% (Aug 27, 5:30 PM)29.83 "Hg (Aug 19, 5:30 AM)
Average72 °F73%30.07 "Hg
* Reported Aug 15 2:00 AM — Aug 30 2:00 AM, Pau, Weather by CustomWeather, © 2016

Note: Actual official high and low records may vary slightly from our data, if they occured in-between our weather recording intervals... More about our weather records

Advertising

Pau Weather History for the Previous 24 Hours

Scroll right to see more
 ConditionsComfort  
Time TempWeatherWind HumidityBarometerVisibility
2:00 AM
Tue, Aug 30
63 °FPassing clouds.3 mph88%30.24 "HgN/A
1:30 AM63 °FOvercast.3 mph88%30.24 "HgN/A
1:00 AM64 °FPassing clouds.2 mph83%30.24 "HgN/A
12:30 AM64 °FOvercast.5 mph83%30.24 "HgN/A
12:00 AM64 °FOvercast.3 mph83%30.27 "HgN/A
11:30 PM
Mon, Aug 29
64 °FOvercast.3 mph83%30.27 "HgN/A
11:00 PM66 °FOvercast.3 mph78%30.27 "HgN/A
10:30 PM66 °FMostly cloudy.3 mph78%30.27 "HgN/A
10:00 PM66 °FOvercast.3 mph78%30.27 "HgN/A
9:30 PM66 °FOvercast.3 mph78%30.24 "HgN/A
9:00 PM66 °FMore clouds than sun.2 mph78%30.24 "HgN/A
8:30 PM66 °FOvercast.5 mph78%30.24 "HgN/A
8:00 PM68 °FOvercast.5 mph73%30.24 "HgN/A
7:30 PM68 °FOvercast.5 mph73%30.24 "HgN/A
7:00 PM68 °FMore clouds than sun.5 mph73%30.24 "HgN/A
6:30 PM68 °FOvercast.7 mph73%30.24 "HgN/A
6:00 PM68 °FOvercast.6 mph69%30.24 "HgN/A
5:30 PM68 °FOvercast.8 mph73%30.24 "HgN/A
5:00 PM68 °FOvercast.7 mph73%30.24 "HgN/A
4:30 PM68 °FOvercast.7 mph73%30.24 "HgN/A
4:00 PM68 °FMostly cloudy.8 mph73%30.24 "HgN/A
3:30 PM68 °FCloudy.8 mph73%30.24 "HgN/A
3:00 PM66 °FOvercast.7 mph83%30.27 "HgN/A
2:30 PM66 °FOvercast.5 mph73%30.27 "HgN/A
2:00 PM68 °FOvercast.7 mph73%30.27 "HgN/A
1:30 PM68 °FMostly cloudy.3 mph73%30.27 "HgN/A
1:00 PM68 °FMostly cloudy.1 mph73%30.27 "HgN/A
12:30 PM68 °FMostly cloudy.2 mph73%30.27 "HgN/A
12:00 PM66 °FPartly sunny.5 mph78%30.27 "HgN/A
11:30 AM66 °FOvercast.3 mph83%30.27 "HgN/A
11:00 AM64 °FMostly cloudy.3 mph88%30.27 "HgN/A
10:30 AM64 °FMore clouds than sun.6 mph88%30.27 "HgN/A
10:00 AM64 °FMostly cloudy.5 mph94%30.27 "HgN/A
9:30 AM64 °FDrizzle. Partly sunny.5 mph94%30.27 "HgN/A
9:00 AM63 °FMore clouds than sun.No wind94%30.27 "HgN/A
8:30 AM63 °FDrizzle. Fog.3 mph94%30.24 "Hg3 mi
8:00 AM63 °FOvercast.3 mph94%30.24 "HgN/A
7:30 AM63 °FMostly cloudy.3 mph94%30.24 "HgN/A
7:00 AM64 °FMostly cloudy.1 mph88%30.24 "HgN/A
6:30 AM64 °FDrizzle. Mostly cloudy.2 mph88%30.24 "Hg4 mi
6:00 AM64 °FLight rain. Mostly cloudy.2 mph88%30.24 "HgN/A
5:30 AM64 °FOvercast.3 mph94%30.24 "HgN/A
5:00 AM64 °FMostly cloudy.3 mph94%30.24 "HgN/A
4:30 AM66 °FMostly cloudy.3 mph88%30.24 "HgN/A
4:00 AM64 °FOvercast.3 mph94%30.24 "HgN/A
3:30 AM64 °FMostly cloudy.3 mph94%30.24 "HgN/A
3:00 AM64 °FMostly cloudy.2 mph88%30.24 "HgN/A
Weather by CustomWeather, © 2016

See weather overviewHow to use our weather pages